| time (UTC) | temp F | wind direction | speed MPH | gust MPH | rain 1hr in | rain 24hr in | rain mn in | humidity % | barometer mb |
| 20260506223349 | 89 | 209 | 5.0 | 9.0 | 0.00 | 0.00 | 0.00 | 46 | 1013.9 |
| 20260506222352 | 89 | 212 | 4.0 | 9.0 | 0.00 | 0.00 | 0.00 | 47 | 1013.9 |
| 20260506221848 | 89 | 136 | 4.0 | 10.0 | 0.00 | 0.00 | 0.00 | 47 | 1014.0 |
| 20260506220849 | 89 | 245 | 5.0 | 14.0 | 0.00 | 0.00 | 0.00 | 48 | 1014.1 |
| 20260506220353 | 89 | 213 | 6.0 | 14.0 | 0.00 | 0.00 | 0.00 | 47 | 1014.1 |
| 20260506215848 | 89 | 215 | 6.0 | 11.0 | 0.00 | 0.00 | 0.00 | 48 | 1014.3 |
| 20260506214846 | 88 | 235 | 4.0 | 8.0 | 0.00 | 0.00 | 0.00 | 47 | 1014.6 |
| 20260506214347 | 88 | 258 | 5.0 | 10.0 | 0.00 | 0.00 | 0.00 | 47 | 1014.5 |
| 20260506213846 | 88 | 218 | 4.0 | 10.0 | 0.00 | 0.00 | 0.00 | 47 | 1014.5 |
| 20260506213354 | 88 | 252 | 4.0 | 9.0 | 0.00 | 0.00 | 0.00 | 48 | 1014.4 |
| 20260506212848 | 88 | 251 | 4.0 | 9.0 | 0.00 | 0.00 | 0.00 | 48 | 1014.3 |
| 20260506212347 | 88 | 263 | 4.0 | 9.0 | 0.00 | 0.00 | 0.00 | 47 | 1014.4 |
| 20260506211846 | 88 | 195 | 4.0 | 7.0 | 0.00 | 0.00 | 0.00 | 48 | 1014.3 |
| 20260506211344 | 88 | 203 | 5.0 | 8.0 | 0.00 | 0.00 | 0.00 | 48 | 1014.3 |
| 20260506210844 | 88 | 192 | 5.0 | 8.0 | 0.00 | 0.00 | 0.00 | 49 | 1014.3 |
| 20260506210343 | 87 | 192 | 5.0 | 10.0 | 0.00 | 0.00 | 0.00 | 49 | 1014.4 |
| 20260506205838 | 88 | 237 | 4.0 | 10.0 | 0.00 | 0.00 | 0.00 | 48 | 1014.4 |
| 20260506204332 | 89 | 240 | 5.0 | 8.0 | 0.00 | 0.00 | 0.00 | 46 | 1014.4 |
| 20260506203832 | 89 | 160 | 6.0 | 13.0 | 0.00 | 0.00 | 0.00 | 48 | 1014.5 |
| 20260506203331 | 89 | 200 | 5.0 | 13.0 | 0.00 | 0.00 | 0.00 | 47 | 1014.6 |
| 20260506202844 | 89 | 202 | 4.0 | 10.0 | 0.00 | 0.00 | 0.00 | 47 | 1014.5 |
| 20260506201842 | 90 | 272 | 5.0 | 11.0 | 0.00 | 0.00 | 0.00 | 46 | 1014.6 |
| 20260506201337 | 89 | 243 | 6.0 | 12.0 | 0.00 | 0.00 | 0.00 | 47 | 1014.6 |
| 20260506200333 | 89 | 191 | 7.0 | 15.0 | 0.00 | 0.00 | 0.00 | 46 | 1014.6 |
| 20260506195334 | 88 | 181 | 7.0 | 13.0 | 0.00 | 0.00 | 0.00 | 47 | 1014.7 |
| 20260506194831 | 88 | 208 | 6.0 | 13.0 | 0.00 | 0.00 | 0.00 | 47 | 1014.7 |
| 20260506194323 | 89 | 196 | 6.0 | 11.0 | 0.00 | 0.00 | 0.00 | 46 | 1014.8 |
| 20260506193319 | 89 | 188 | 7.0 | 15.0 | 0.00 | 0.00 | 0.00 | 46 | 1015.0 |
| 20260506192828 | 89 | 197 | 6.0 | 14.0 | 0.00 | 0.00 | 0.00 | 46 | 1015.1 |
| 20260506192316 | 88 | 199 | 5.0 | 16.0 | 0.00 | 0.00 | 0.00 | 47 | 1015.1 |
| 20260506191815 | 88 | 215 | 7.0 | 16.0 | 0.00 | 0.00 | 0.00 | 47 | 1015.1 |
| 20260506191310 | 87 | 190 | 9.0 | 18.0 | 0.00 | 0.00 | 0.00 | 49 | 1015.2 |
| 20260506190812 | 87 | 183 | 8.0 | 18.0 | 0.00 | 0.00 | 0.00 | 45 | 1015.3 |
| 20260506185811 | 88 | 266 | 6.0 | 14.0 | 0.00 | 0.00 | 0.00 | 46 | 1015.4 |
| 20260506185313 | 88 | 179 | 7.0 | 14.0 | 0.00 | 0.00 | 0.00 | 46 | 1015.5 |
| 20260506184807 | 88 | 196 | 6.0 | 12.0 | 0.00 | 0.00 | 0.00 | 47 | 1015.4 |
| 20260506184309 | 88 | 236 | 5.0 | 11.0 | 0.00 | 0.00 | 0.00 | 46 | 1015.6 |
| 20260506183806 | 88 | 231 | 5.0 | 13.0 | 0.00 | 0.00 | 0.00 | 46 | 1015.7 |
| 20260506183305 | 88 | 248 | 4.0 | 13.0 | 0.00 | 0.00 | 0.00 | 46 | 1015.7 |
| 20260506182804 | 88 | 204 | 5.0 | 13.0 | 0.00 | 0.00 | 0.00 | 46 | 1015.7 |
| 20260506182306 | 87 | 192 | 7.0 | 13.0 | 0.00 | 0.00 | 0.00 | 46 | 1015.8 |
| 20260506181757 | 87 | 194 | 5.0 | 13.0 | 0.00 | 0.00 | 0.00 | 46 | 1015.9 |
| 20260506180744 | 87 | 266 | 7.0 | 13.0 | 0.00 | 0.00 | 0.00 | 46 | 1016.0 |
| 20260506180242 | 87 | 172 | 7.0 | 13.0 | 0.00 | 0.00 | 0.00 | 47 | 1016.0 |
| 20260506175742 | 87 | 200 | 5.0 | 12.0 | 0.00 | 0.00 | 0.00 | 45 | 1016.1 |
| 20260506175241 | 87 | 248 | 6.0 | 14.0 | 0.00 | 0.00 | 0.00 | 47 | 1016.1 |
| 20260506174737 | 86 | 218 | 6.0 | 14.0 | 0.00 | 0.00 | 0.00 | 48 | 1016.1 |
| 20260506174241 | 86 | 216 | 5.0 | 9.0 | 0.00 | 0.00 | 0.00 | 44 | 1016.3 |
| 20260506173744 | 87 | 231 | 5.0 | 13.0 | 0.00 | 0.00 | 0.00 | 46 | 1016.4 |
| 20260506173245 | 86 | 231 | 6.0 | 13.0 | 0.00 | 0.00 | 0.00 | 47 | 1016.5 |
| 20260506172739 | 86 | 217 | 6.0 | 13.0 | 0.00 | 0.00 | 0.00 | 47 | 1016.6 |
| 20260506172241 | 85 | 253 | 5.0 | 13.0 | 0.00 | 0.00 | 0.00 | 49 | 1016.7 |
| 20260506171740 | 85 | 181 | 6.0 | 12.0 | 0.00 | 0.00 | 0.00 | 47 | 1016.8 |
| 20260506171235 | 85 | 213 | 7.0 | 13.0 | 0.00 | 0.00 | 0.00 | 49 | 1017.0 |
| 20260506170735 | 85 | 194 | 6.0 | 14.0 | 0.00 | 0.00 | 0.00 | 50 | 1017.0 |
| 20260506170231 | 84 | 205 | 6.0 | 14.0 | 0.00 | 0.00 | 0.00 | 52 | 1016.9 |
| 20260506165731 | 84 | 194 | 6.0 | 14.0 | 0.00 | 0.00 | 0.00 | 50 | 1017.1 |
| 20260506165227 | 85 | 248 | 5.0 | 14.0 | 0.00 | 0.00 | 0.00 | 49 | 1017.1 |
| 20260506164723 | 85 | 284 | 7.0 | 13.0 | 0.00 | 0.00 | 0.00 | 48 | 1017.2 |
| 20260506164216 | 84 | 237 | 8.0 | 13.0 | 0.00 | 0.00 | 0.00 | 53 | 1017.3 |
| 20260506163717 | 83 | 271 | 7.0 | 13.0 | 0.00 | 0.00 | 0.00 | 50 | 1017.3 |
| 20260506163217 | 84 | 266 | 6.0 | 12.0 | 0.00 | 0.00 | 0.00 | 51 | 1017.4 |
| 20260506162716 | 83 | 225 | 5.0 | 11.0 | 0.00 | 0.00 | 0.00 | 53 | 1017.4 |
| 20260506161725 | 82 | 166 | 8.0 | 15.0 | 0.00 | 0.00 | 0.00 | 53 | 1017.6 |
| 20260506160715 | 83 | 215 | 6.0 | 14.0 | 0.00 | 0.00 | 0.00 | 51 | 1017.6 |
| 20260506155712 | 83 | 239 | 6.0 | 12.0 | 0.00 | 0.00 | 0.00 | 54 | 1017.7 |
| 20260506155212 | 82 | 229 | 6.0 | 12.0 | 0.00 | 0.00 | 0.00 | 56 | 1017.6 |
| 20260506154718 | 82 | 202 | 6.0 | 12.0 | 0.00 | 0.00 | 0.00 | 58 | 1017.5 |
| 20260506154215 | 81 | 184 | 6.0 | 12.0 | 0.00 | 0.00 | 0.00 | 60 | 1017.5 |
| 20260506153715 | 81 | 176 | 7.0 | 14.0 | 0.00 | 0.00 | 0.00 | 59 | 1017.5 |
| 20260506153212 | 81 | 182 | 8.0 | 14.0 | 0.00 | 0.00 | 0.00 | 59 | 1017.5 |
| 20260506152713 | 80 | 177 | 9.0 | 15.0 | 0.00 | 0.00 | 0.00 | 60 | 1017.7 |
| 20260506152211 | 81 | 160 | 7.0 | 15.0 | 0.00 | 0.00 | 0.00 | 58 | 1017.5 |
| 20260506151712 | 81 | 212 | 6.0 | 14.0 | 0.00 | 0.00 | 0.00 | 60 | 1017.4 |
| 20260506151210 | 80 | 172 | 6.0 | 12.0 | 0.00 | 0.00 | 0.00 | 61 | 1017.5 |
| 20260506150709 | 80 | 198 | 5.0 | 10.0 | 0.00 | 0.00 | 0.00 | 62 | 1017.5 |
| 20260506150213 | 80 | 230 | 4.0 | 10.0 | 0.00 | 0.00 | 0.00 | 62 | 1017.4 |
| 20260506145710 | 79 | 224 | 6.0 | 12.0 | 0.00 | 0.00 | 0.00 | 63 | 1017.4 |
| 20260506145213 | 78 | 191 | 6.0 | 12.0 | 0.00 | 0.00 | 0.00 | 63 | 1017.6 |
| 20260506144710 | 78 | 183 | 5.0 | 10.0 | 0.00 | 0.00 | 0.00 | 64 | 1017.5 |
| 20260506144209 | 78 | 198 | 6.0 | 11.0 | 0.00 | 0.00 | 0.00 | 64 | 1017.5 |
| 20260506143710 | 78 | 202 | 6.0 | 15.0 | 0.00 | 0.00 | 0.00 | 64 | 1017.4 |
| 20260506143209 | 78 | 221 | 6.0 | 15.0 | 0.00 | 0.00 | 0.00 | 64 | 1017.4 |
| 20260506142213 | 77 | 197 | 5.0 | 14.0 | 0.00 | 0.00 | 0.00 | 66 | 1017.3 |
| 20260506141204 | 76 | 195 | 4.0 | 8.0 | 0.00 | 0.00 | 0.00 | 67 | 1017.2 |
| 20260506140206 | 76 | 230 | 4.0 | 9.0 | 0.00 | 0.00 | 0.00 | 68 | 1017.3 |
| 20260506135702 | 75 | 198 | 4.0 | 10.0 | 0.00 | 0.00 | 0.00 | 69 | 1017.3 |
| 20260506135202 | 75 | 189 | 4.0 | 10.0 | 0.00 | 0.00 | 0.00 | 68 | 1017.2 |
| 20260506134704 | 75 | 218 | 4.0 | 9.0 | 0.00 | 0.00 | 0.00 | 69 | 1017.2 |
| 20260506134159 | 74 | 232 | 4.0 | 9.0 | 0.00 | 0.00 | 0.00 | 70 | 1017.3 |
| 20260506133701 | 73 | 182 | 4.0 | 8.0 | 0.00 | 0.00 | 0.00 | 71 | 1017.2 |
| 20260506133200 | 73 | 178 | 5.0 | 8.0 | 0.00 | 0.00 | 0.00 | 72 | 1017.2 |
| 20260506132659 | 72 | 217 | 5.0 | 9.0 | 0.00 | 0.00 | 0.00 | 71 | 1017.2 |
| 20260506132157 | 72 | 213 | 5.0 | 11.0 | 0.00 | 0.00 | 0.00 | 71 | 1017.0 |
| 20260506131658 | 72 | 208 | 5.0 | 11.0 | 0.00 | 0.00 | 0.00 | 72 | 1016.9 |
| 20260506131158 | 72 | 225 | 5.0 | 9.0 | 0.00 | 0.00 | 0.00 | 73 | 1016.9 |
| 20260506130659 | 71 | 176 | 4.0 | 7.0 | 0.00 | 0.00 | 0.00 | 72 | 1016.9 |
| 20260506130159 | 71 | 200 | 4.0 | 8.0 | 0.00 | 0.00 | 0.00 | 74 | 1016.7 |
| 20260506125708 | 70 | 177 | 4.0 | 10.0 | 0.00 | 0.00 | 0.00 | 74 | 1016.6 |
| 20260506125157 | 70 | 198 | 4.0 | 10.0 | 0.00 | 0.00 | 0.00 | 75 | 1016.6 |
| 20260506124659 | 69 | 185 | 3.0 | 6.0 | 0.00 | 0.00 | 0.00 | 76 | 1016.7 |
| 20260506124159 | 68 | 123 | 3.0 | 8.0 | 0.00 | 0.00 | 0.00 | 77 | 1016.7 |
| 20260506123703 | 67 | 188 | 3.0 | 8.0 | 0.00 | 0.00 | 0.00 | 78 | 1016.6 |
| 20260506122707 | 67 | 189 | 3.0 | 7.0 | 0.00 | 0.00 | 0.00 | 79 | 1016.8 |
| 20260506122158 | 66 | 196 | 3.0 | 6.0 | 0.00 | 0.00 | 0.00 | 80 | 1016.8 |
| 20260506120657 | 64 | 182 | 1.0 | 4.0 | 0.00 | 0.00 | 0.00 | 86 | 1016.6 |
| 20260506120212 | 63 | 182 | 0.0 | 2.0 | 0.00 | 0.00 | 0.00 | 87 | 1016.6 |
| 20260506115658 | 63 | 182 | 0.0 | 2.0 | 0.00 | 0.00 | 0.00 | 88 | 1016.4 |
| 20260506115158 | 62 | 182 | 0.0 | 0.0 | 0.00 | 0.00 | 0.00 | 88 | 1016.4 |
| 20260506114657 | 62 | 182 | 0.0 | 0.0 | 0.00 | 0.00 | 0.00 | 89 | 1016.4 |
| 20260506113657 | 61 | 182 | 0.0 | 0.0 | 0.00 | 0.00 | 0.00 | 90 | 1016.2 |
| 20260506113157 | 61 | 182 | 0.0 | 0.0 | 0.00 | 0.00 | 0.00 | 90 | 1016.2 |
| 20260506112658 | 61 | 182 | 0.0 | 0.0 | 0.00 | 0.00 | 0.00 | 90 | 1016.2 |
| 20260506112157 | 60 | 182 | 0.0 | 0.0 | 0.00 | 0.00 | 0.00 | 90 | 1016.1 |
| 20260506111657 | 60 | 182 | 0.0 | 0.0 | 0.00 | 0.00 | 0.00 | 90 | 1016.1 |
| 20260506110659 | 59 | 182 | 0.0 | 0.0 | 0.00 | 0.00 | 0.00 | 89 | 1016.2 |
| 20260506110159 | 59 | 182 | 0.0 | 0.0 | 0.00 | 0.00 | 0.00 | 89 | 1016.1 |
| 20260506105156 | 59 | 182 | 0.0 | 0.0 | 0.00 | 0.00 | 0.00 | 88 | 1016.0 |
| 20260506104658 | 60 | 182 | 0.0 | 0.0 | 0.00 | 0.00 | 0.00 | 88 | 1015.9 |
| 20260506104155 | 60 | 182 | 0.0 | 0.0 | 0.00 | 0.00 | 0.00 | 88 | 1015.7 |
| 20260506103151 | 60 | 182 | 0.0 | 0.0 | 0.00 | 0.00 | 0.00 | 87 | 1015.6 |
| 20260506102147 | 60 | 182 | 0.0 | 0.0 | 0.00 | 0.00 | 0.00 | 86 | 1015.5 |
| 20260506101651 | 60 | 182 | 0.0 | 0.0 | 0.00 | 0.00 | 0.00 | 86 | 1015.5 |
| 20260506101152 | 60 | 182 | 0.0 | 0.0 | 0.00 | 0.00 | 0.00 | 86 | 1015.5 |
| 20260506100651 | 60 | 182 | 0.0 | 0.0 | 0.00 | 0.00 | 0.00 | 86 | 1015.5 |
| 20260506100200 | 61 | 182 | 0.0 | 0.0 | 0.00 | 0.00 | 0.00 | 85 | 1015.6 |
| 20260506095637 | 61 | 182 | 0.0 | 0.0 | 0.00 | 0.00 | 0.00 | 85 | 1015.6 |
| 20260506095138 | 61 | 182 | 0.0 | 0.0 | 0.00 | 0.00 | 0.00 | 85 | 1015.6 |
| 20260506094636 | 61 | 182 | 0.0 | 0.0 | 0.00 | 0.00 | 0.00 | 84 | 1015.6 |
| 20260506094135 | 61 | 182 | 0.0 | 0.0 | 0.00 | 0.00 | 0.00 | 84 | 1015.7 |
| 20260506093634 | 62 | 182 | 0.0 | 0.0 | 0.00 | 0.00 | 0.00 | 84 | 1015.7 |
| 20260506092137 | 62 | 182 | 0.0 | 1.0 | 0.00 | 0.00 | 0.00 | 84 | 1015.6 |
| 20260506091630 | 62 | 182 | 0.0 | 1.0 | 0.00 | 0.00 | 0.00 | 84 | 1015.6 |
| 20260506091130 | 62 | 182 | 0.0 | 1.0 | 0.00 | 0.00 | 0.00 | 84 | 1015.6 |
| 20260506090627 | 62 | 182 | 0.0 | 1.0 | 0.00 | 0.00 | 0.00 | 84 | 1015.6 |
| 20260506085623 | 62 | 182 | 0.0 | 0.0 | 0.00 | 0.00 | 0.00 | 84 | 1015.6 |
| 20260506085123 | 62 | 182 | 0.0 | 0.0 | 0.00 | 0.00 | 0.00 | 83 | 1015.6 |
| 20260506084621 | 62 | 182 | 0.0 | 0.0 | 0.00 | 0.00 | 0.00 | 83 | 1015.7 |
| 20260506084119 | 63 | 182 | 0.0 | 0.0 | 0.00 | 0.00 | 0.00 | 83 | 1015.6 |
| 20260506083624 | 63 | 182 | 0.0 | 0.0 | 0.00 | 0.00 | 0.00 | 83 | 1015.6 |
| 20260506083118 | 63 | 182 | 0.0 | 0.0 | 0.00 | 0.00 | 0.00 | 82 | 1015.6 |
| 20260506082614 | 63 | 182 | 0.0 | 0.0 | 0.00 | 0.00 | 0.00 | 82 | 1015.5 |
| 20260506082118 | 63 | 182 | 0.0 | 0.0 | 0.00 | 0.00 | 0.00 | 82 | 1015.6 |
| 20260506081614 | 64 | 182 | 0.0 | 0.0 | 0.00 | 0.00 | 0.00 | 81 | 1015.7 |
| 20260506080611 | 64 | 182 | 0.0 | 0.0 | 0.00 | 0.00 | 0.00 | 80 | 1015.8 |
| 20260506073041 | 65 | 182 | 1.0 | 3.0 | 0.00 | 0.00 | 0.00 | 78 | 1015.6 |
| 20260506072035 | 65 | 183 | 1.0 | 4.0 | 0.00 | 0.00 | 0.00 | 77 | 1015.5 |
| 20260506071535 | 65 | 184 | 1.0 | 5.0 | 0.00 | 0.00 | 0.00 | 77 | 1015.5 |
| 20260506071040 | 66 | 184 | 1.0 | 5.0 | 0.00 | 0.00 | 0.00 | 77 | 1015.5 |
| 20260506070533 | 66 | 183 | 2.0 | 4.0 | 0.00 | 0.00 | 0.00 | 77 | 1015.5 |
| 20260506062032 | 66 | 188 | 1.0 | 7.0 | 0.00 | 0.00 | 0.00 | 78 | 1015.9 |
| 20260506061533 | 66 | 173 | 1.0 | 4.0 | 0.00 | 0.00 | 0.00 | 78 | 1015.7 |
| 20260506061040 | 66 | 181 | 1.0 | 7.0 | 0.00 | 0.00 | 0.00 | 77 | 1015.8 |
| 20260506060522 | 66 | 181 | 2.0 | 7.0 | 0.00 | 0.00 | 0.00 | 78 | 1015.8 |
| 20260506051005 | 66 | 182 | 2.0 | 5.0 | 0.00 | 0.00 | 0.00 | 78 | 1016.4 |
| 20260506050507 | 66 | 174 | 1.0 | 5.0 | 0.00 | 0.00 | 0.00 | 77 | 1016.4 |
| 20260506044458 | 67 | 176 | 1.0 | 5.0 | 0.00 | 0.00 | 0.00 | 77 | 1016.5 |
| 20260506043952 | 67 | 176 | 1.0 | 5.0 | 0.00 | 0.00 | 0.00 | 77 | 1016.4 |
| 20260506043446 | 67 | 152 | 1.0 | 6.0 | 0.00 | 0.00 | 0.00 | 76 | 1016.4 |
| 20260506042445 | 67 | 162 | 1.0 | 6.0 | 0.00 | 0.00 | 0.00 | 76 | 1016.4 |
| 20260506041448 | 67 | 168 | 1.0 | 4.0 | 0.00 | 0.00 | 0.00 | 76 | 1016.4 |
| 20260506040945 | 67 | 158 | 1.0 | 5.0 | 0.00 | 0.00 | 0.00 | 75 | 1016.6 |
| 20260506035941 | 67 | 158 | 1.0 | 7.0 | 0.00 | 0.00 | 0.00 | 75 | 1016.6 |
| 20260506035444 | 67 | 171 | 1.0 | 2.0 | 0.00 | 0.00 | 0.00 | 75 | 1016.6 |
| 20260506034953 | 67 | 171 | 1.0 | 3.0 | 0.00 | 0.00 | 0.00 | 75 | 1016.5 |
| 20260506034442 | 67 | 171 | 1.0 | 5.0 | 0.00 | 0.00 | 0.00 | 74 | 1016.5 |
| 20260506033944 | 68 | 158 | 1.0 | 5.0 | 0.00 | 0.00 | 0.00 | 74 | 1016.6 |
| 20260506033437 | 68 | 121 | 1.0 | 3.0 | 0.00 | 0.00 | 0.00 | 73 | 1016.7 |
| 20260506032933 | 68 | 121 | 1.0 | 3.0 | 0.00 | 0.00 | 0.00 | 73 | 1016.8 |
| 20260506032431 | 68 | 121 | 1.0 | 3.0 | 0.00 | 0.00 | 0.00 | 73 | 1016.7 |
| 20260506031929 | 68 | 121 | 0.0 | 6.0 | 0.00 | 0.00 | 0.00 | 73 | 1016.6 |
| 20260506030927 | 68 | 153 | 1.0 | 4.0 | 0.00 | 0.00 | 0.00 | 71 | 1016.6 |
| 20260506030427 | 69 | 146 | 1.0 | 3.0 | 0.00 | 0.00 | 0.00 | 71 | 1016.6 |
| 20260506025934 | 69 | 144 | 1.0 | 5.0 | 0.00 | 0.00 | 0.00 | 71 | 1016.6 |
| 20260506024943 | 69 | 194 | 1.0 | 4.0 | 0.00 | 0.00 | 0.00 | 70 | 1016.8 |
| 20260506024429 | 69 | 108 | 1.0 | 4.0 | 0.00 | 0.00 | 0.00 | 70 | 1016.7 |
| 20260506023925 | 69 | 166 | 1.0 | 4.0 | 0.00 | 0.00 | 0.00 | 70 | 1016.7 |
| 20260506023426 | 69 | 120 | 1.0 | 3.0 | 0.00 | 0.00 | 0.00 | 69 | 1016.7 |
| 20260506022925 | 69 | 121 | 1.0 | 4.0 | 0.00 | 0.00 | 0.00 | 69 | 1016.6 |
| 20260506022425 | 70 | 173 | 1.0 | 4.0 | 0.00 | 0.00 | 0.00 | 68 | 1016.5 |
| 20260506020417 | 70 | 146 | 1.0 | 5.0 | 0.00 | 0.00 | 0.00 | 67 | 1016.3 |
| 20260506015917 | 70 | 166 | 1.0 | 5.0 | 0.00 | 0.00 | 0.00 | 67 | 1016.3 |
| 20260506015417 | 71 | 160 | 1.0 | 5.0 | 0.00 | 0.00 | 0.00 | 66 | 1016.2 |
| 20260506014925 | 71 | 139 | 1.0 | 5.0 | 0.00 | 0.00 | 0.00 | 66 | 1016.2 |
| 20260506014415 | 71 | 148 | 1.0 | 5.0 | 0.00 | 0.00 | 0.00 | 66 | 1016.1 |
| 20260506013916 | 71 | 161 | 1.0 | 4.0 | 0.00 | 0.00 | 0.00 | 65 | 1016.0 |
| 20260506012914 | 72 | 131 | 1.0 | 6.0 | 0.00 | 0.00 | 0.00 | 65 | 1015.9 |
| 20260506012413 | 72 | 148 | 1.0 | 5.0 | 0.00 | 0.00 | 0.00 | 64 | 1015.8 |
| 20260506011922 | 72 | 154 | 1.0 | 5.0 | 0.00 | 0.00 | 0.00 | 64 | 1015.6 |
| 20260506011418 | 72 | 145 | 1.0 | 5.0 | 0.00 | 0.00 | 0.00 | 63 | 1015.5 |
| 20260506010409 | 73 | 157 | 1.0 | 6.0 | 0.00 | 0.00 | 0.00 | 63 | 1015.5 |
| 20260506005407 | 73 | 148 | 1.0 | 6.0 | 0.00 | 0.00 | 0.00 | 61 | 1015.5 |
| 20260506004906 | 74 | 151 | 1.0 | 6.0 | 0.00 | 0.00 | 0.00 | 61 | 1015.4 |
| 20260506004408 | 74 | 128 | 2.0 | 7.0 | 0.00 | 0.00 | 0.00 | 61 | 1015.4 |
| 20260506003905 | 74 | 124 | 2.0 | 7.0 | 0.00 | 0.00 | 0.00 | 60 | 1015.4 |
| 20260506003406 | 75 | 145 | 2.0 | 8.0 | 0.00 | 0.00 | 0.00 | 59 | 1015.2 |
| 20260506001904 | 76 | 176 | 2.0 | 11.0 | 0.00 | 0.00 | 0.00 | 56 | 1014.9 |
| 20260506001412 | 76 | 144 | 2.0 | 6.0 | 0.00 | 0.00 | 0.00 | 55 | 1014.8 |
| 20260506000908 | 77 | 162 | 2.0 | 11.0 | 0.00 | 0.00 | 0.00 | 54 | 1014.7 |
| 20260506000405 | 77 | 69 | 2.0 | 11.0 | 0.00 | 0.00 | 0.00 | 53 | 1014.6 |
| 20260505235905 | 78 | 69 | 2.0 | 6.0 | 0.00 | 0.00 | 0.00 | 52 | 1014.6 |
| 20260505235404 | 78 | 72 | 2.0 | 6.0 | 0.00 | 0.00 | 0.00 | 52 | 1014.6 |
| 20260505234903 | 79 | 157 | 2.0 | 6.0 | 0.00 | 0.00 | 0.00 | 51 | 1014.5 |
| 20260505234403 | 79 | 67 | 2.0 | 7.0 | 0.00 | 0.00 | 0.00 | 51 | 1014.5 |
| 20260505233904 | 80 | 167 | 2.0 | 7.0 | 0.00 | 0.00 | 0.00 | 51 | 1014.5 |
| 20260505232904 | 81 | 145 | 2.0 | 7.0 | 0.00 | 0.00 | 0.00 | 49 | 1014.4 |
| 20260505232400 | 81 | 69 | 2.0 | 7.0 | 0.00 | 0.00 | 0.00 | 48 | 1014.5 |
| 20260505231857 | 82 | 161 | 2.0 | 7.0 | 0.00 | 0.00 | 0.00 | 47 | 1014.4 |
| 20260505231401 | 83 | 136 | 1.0 | 4.0 | 0.00 | 0.00 | 0.00 | 44 | 1014.4 |
| 20260505230857 | 83 | 127 | 1.0 | 4.0 | 0.00 | 0.00 | 0.00 | 41 | 1014.4 |
| 20260505230357 | 83 | 182 | 2.0 | 6.0 | 0.00 | 0.00 | 0.00 | 41 | 1014.5 |
| 20260505225358 | 85 | 177 | 2.0 | 5.0 | 0.00 | 0.00 | 0.00 | 39 | 1014.6 |
| 20260505224855 | 85 | 176 | 2.0 | 6.0 | 0.00 | 0.00 | 0.00 | 40 | 1014.5 |